| time (UTC) | temp F | wind direction | speed knots | gust knots | rain 1hr in | rain 24hr in | rain mn in | humidity % | barometer mb |
| 20260904234542 | 79 | 15 | 0.0 | 0.0 | 0.00 | 0.06 | 0.06 | 95 | 1013.0 |
| 20260904234038 | 79 | 15 | 0.0 | 0.9 | 0.00 | 0.06 | 0.06 | 94 | 1012.8 |
| 20260904233533 | 80 | 94 | 1.7 | 1.7 | 0.00 | 0.06 | 0.06 | 94 | 1013.2 |
| 20260904233029 | 80 | 100 | 1.7 | 2.6 | 0.00 | 0.06 | 0.06 | 94 | 1013.2 |
| 20260904232526 | 80 | 69 | 0.9 | 1.7 | 0.00 | 0.06 | 0.06 | 94 | 1013.1 |
| 20260904232022 | 80 | 181 | 0.0 | 0.9 | 0.00 | 0.06 | 0.06 | 94 | 1013.3 |
| 20260904231518 | 80 | 78 | 0.9 | 0.9 | 0.00 | 0.06 | 0.06 | 94 | 1013.4 |
| 20260904231012 | 80 | 320 | 1.7 | 2.6 | 0.00 | 0.06 | 0.06 | 94 | 1013.2 |
| 20260904230511 | 80 | 223 | 0.0 | 0.0 | 0.00 | 0.06 | 0.06 | 94 | 1013.2 |
| 20260904230007 | 80 | 127 | 0.9 | 1.7 | 0.00 | 0.06 | 0.06 | 93 | 1013.2 |
| 20260904225504 | 80 | 100 | 0.0 | 0.0 | 0.00 | 0.06 | 0.06 | 93 | 1013.0 |
| 20260904225004 | 80 | 254 | 0.0 | 1.7 | 0.00 | 0.06 | 0.06 | 93 | 1013.1 |
| 20260904224500 | 81 | 298 | 1.7 | 2.6 | 0.00 | 0.06 | 0.06 | 93 | 1013.0 |
| 20260904223959 | 80 | 3 | 0.0 | 0.0 | 0.00 | 0.06 | 0.06 | 93 | 1012.9 |
| 20260904223458 | 80 | 34 | 0.0 | 1.7 | 0.02 | 0.06 | 0.06 | 92 | 1012.8 |
| 20260904222954 | 80 | 254 | 0.9 | 1.7 | 0.02 | 0.06 | 0.06 | 92 | 1012.8 |
| 20260904222449 | 80 | 176 | 0.0 | 1.7 | 0.02 | 0.05 | 0.05 | 92 | 1013.1 |
| 20260904221944 | 80 | 295 | 4.3 | 4.3 | 0.05 | 0.05 | 0.05 | 91 | 1013.1 |
| 20260904221438 | 81 | 265 | 1.7 | 6.1 | 0.07 | 0.05 | 0.05 | 90 | 1013.1 |
| 20260904220934 | 83 | 264 | 1.7 | 5.2 | 0.05 | 0.04 | 0.04 | 87 | 1013.2 |
| 20260904220434 | 83 | 290 | 0.0 | 0.9 | 0.00 | 0.04 | 0.04 | 87 | 1013.0 |
| 20260904215929 | 84 | 168 | 0.0 | 1.7 | 0.00 | 0.04 | 0.04 | 86 | 1012.7 |
| 20260904215424 | 84 | 67 | 0.9 | 3.5 | 0.00 | 0.04 | 0.04 | 85 | 1012.6 |
| 20260904214920 | 84 | 149 | 0.9 | 2.6 | 0.00 | 0.04 | 0.04 | 86 | 1012.6 |
| 20260904214416 | 84 | 114 | 2.6 | 4.3 | 0.00 | 0.04 | 0.04 | 85 | 1012.6 |
| 20260904213915 | 84 | 303 | 0.0 | 0.0 | 0.00 | 0.04 | 0.04 | 87 | 1012.7 |
| 20260904213409 | 84 | 218 | 0.9 | 2.6 | 0.00 | 0.04 | 0.04 | 85 | 1012.6 |
| 20260904212905 | 84 | 144 | 0.0 | 2.6 | 0.00 | 0.04 | 0.04 | 85 | 1012.8 |
| 20260904212404 | 84 | 164 | 0.0 | 2.6 | 0.00 | 0.04 | 0.04 | 85 | 1012.6 |
| 20260904211900 | 84 | 97 | 0.0 | 0.0 | 0.00 | 0.04 | 0.04 | 87 | 1012.8 |
| 20260904211355 | 84 | 98 | 1.7 | 2.6 | 0.00 | 0.04 | 0.04 | 87 | 1012.7 |
| 20260904210850 | 84 | 118 | 1.7 | 2.6 | 0.00 | 0.04 | 0.04 | 86 | 1012.8 |
| 20260904210349 | 83 | 46 | 0.0 | 1.7 | 0.00 | 0.04 | 0.04 | 87 | 1012.9 |
| 20260904205846 | 83 | 93 | 3.5 | 4.3 | 0.00 | 0.04 | 0.04 | 86 | 1013.0 |
| 20260904205341 | 83 | 105 | 2.6 | 3.5 | 0.00 | 0.04 | 0.04 | 89 | 1012.9 |
| 20260904204838 | 83 | 212 | 1.7 | 2.6 | 0.00 | 0.04 | 0.04 | 89 | 1012.7 |
| 20260904204333 | 82 | 10 | 0.9 | 1.7 | 0.00 | 0.04 | 0.04 | 90 | 1012.7 |
| 20260904203830 | 82 | 246 | 0.0 | 0.0 | 0.00 | 0.04 | 0.04 | 91 | 1012.4 |
| 20260904203326 | 82 | 155 | 0.0 | 0.9 | 0.00 | 0.04 | 0.04 | 91 | 1012.5 |
| 20260904202821 | 82 | 146 | 0.0 | 0.9 | 0.02 | 0.04 | 0.04 | 91 | 1012.3 |
| 20260904202317 | 81 | 158 | 0.0 | 1.7 | 0.05 | 0.04 | 0.04 | 90 | 1012.6 |
| 20260904201813 | 81 | 43 | 0.0 | 1.7 | 0.05 | 0.03 | 0.03 | 91 | 1012.4 |
| 20260904201313 | 81 | 248 | 0.9 | 2.6 | 0.05 | 0.03 | 0.03 | 89 | 1012.7 |
| 20260904200808 | 81 | 139 | 0.0 | 1.7 | 0.02 | 0.02 | 0.02 | 88 | 1012.6 |
| 20260904200301 | 82 | 302 | 0.0 | 2.6 | 0.00 | 0.02 | 0.02 | 87 | 1012.8 |
| 20260904195801 | 82 | 21 | 1.7 | 2.6 | 0.00 | 0.02 | 0.02 | 86 | 1013.2 |
| 20260904195300 | 83 | 248 | 1.7 | 3.5 | 0.00 | 0.02 | 0.02 | 86 | 1013.4 |
| 20260904194755 | 83 | 3 | 0.0 | 1.7 | 0.00 | 0.02 | 0.02 | 87 | 1013.6 |
| 20260904194254 | 83 | 292 | 1.7 | 1.7 | 0.00 | 0.02 | 0.02 | 86 | 1013.4 |
| 20260904193749 | 83 | 277 | 0.0 | 0.9 | 0.00 | 0.02 | 0.02 | 86 | 1013.7 |
| 20260904193245 | 84 | 250 | 0.0 | 1.7 | 0.00 | 0.02 | 0.02 | 85 | 1013.3 |
| 20260904192740 | 84 | 146 | 0.9 | 1.7 | 0.00 | 0.02 | 0.02 | 83 | 1013.5 |
| 20260904192235 | 84 | 9 | 0.0 | 1.7 | 0.00 | 0.02 | 0.02 | 82 | 1013.5 |
| 20260904191732 | 84 | 13 | 0.0 | 1.7 | 0.00 | 0.02 | 0.02 | 81 | 1013.1 |
| 20260904191228 | 83 | 230 | 0.0 | 0.9 | 0.00 | 0.02 | 0.02 | 84 | 1013.1 |
| 20260904190725 | 82 | 195 | 0.0 | 0.9 | 0.00 | 0.02 | 0.02 | 84 | 1013.2 |
| 20260904190220 | 82 | 133 | 0.9 | 1.7 | 0.02 | 0.02 | 0.02 | 84 | 1013.6 |
| 20260904185717 | 82 | 9 | 0.9 | 1.7 | 0.09 | 0.02 | 0.02 | 82 | 1013.7 |
| 20260904185217 | 83 | 16 | 0.0 | 2.6 | 0.09 | 0.02 | 0.02 | 84 | 1013.3 |
| 20260904184715 | 84 | 67 | 1.7 | 4.3 | 0.02 | 0.00 | 0.00 | 80 | 1013.4 |
| 20260904184211 | 85 | 108 | 2.6 | 3.5 | 0.00 | 0.00 | 0.00 | 78 | 1013.3 |
| 20260904183707 | 86 | 37 | 0.0 | 2.6 | 0.00 | 0.00 | 0.00 | 77 | 1013.2 |
| 20260904183201 | 86 | 250 | 0.0 | 2.6 | 0.00 | 0.00 | 0.00 | 76 | 1013.2 |
| 20260904182656 | 87 | 144 | 0.9 | 3.5 | 0.00 | 0.00 | 0.00 | 72 | 1013.5 |
| 20260904182151 | 88 | 29 | 2.6 | 5.2 | 0.00 | 0.00 | 0.00 | 71 | 1013.5 |
| 20260904181647 | 88 | 4 | 2.6 | 7.8 | 0.00 | 0.00 | 0.00 | 72 | 1013.3 |
| 20260904181141 | 88 | 342 | 1.7 | 3.5 | 0.00 | 0.00 | 0.00 | 74 | 1013.5 |
| 20260904180637 | 88 | 36 | 2.6 | 4.3 | 0.00 | 0.00 | 0.00 | 74 | 1013.5 |
| 20260904180126 | 89 | 330 | 1.7 | 7.0 | 0.00 | 0.00 | 0.00 | 74 | 1013.3 |
| 20260904175625 | 90 | 58 | 0.9 | 7.0 | 0.00 | 0.00 | 0.00 | 73 | 1013.4 |
| 20260904175124 | 90 | 76 | 4.3 | 7.8 | 0.00 | 0.00 | 0.00 | 72 | 1013.5 |
| 20260904174619 | 92 | 21 | 2.6 | 3.5 | 0.00 | 0.00 | 0.00 | 69 | 1013.7 |
| 20260904174115 | 90 | 87 | 1.7 | 2.6 | 0.00 | 0.00 | 0.00 | 72 | 1013.7 |
| 20260904173615 | 90 | 4 | 0.0 | 3.5 | 0.00 | 0.00 | 0.00 | 71 | 1013.5 |
| 20260904173111 | 91 | 337 | 1.7 | 1.7 | 0.00 | 0.00 | 0.00 | 65 | 1013.7 |
| 20260904172607 | 92 | 250 | 0.0 | 3.5 | 0.00 | 0.00 | 0.00 | 65 | 1013.6 |
| 20260904172106 | 92 | 164 | 0.9 | 2.6 | 0.00 | 0.00 | 0.00 | 65 | 1013.8 |
| 20260904171601 | 91 | 250 | 0.0 | 2.6 | 0.00 | 0.00 | 0.00 | 65 | 1013.8 |
| 20260904171056 | 90 | 220 | 0.0 | 1.7 | 0.00 | 0.00 | 0.00 | 66 | 1014.0 |
| 20260904170552 | 90 | 173 | 0.0 | 2.6 | 0.00 | 0.00 | 0.00 | 67 | 1014.2 |
| 20260904170048 | 90 | 339 | 0.9 | 1.7 | 0.00 | 0.00 | 0.00 | 68 | 1014.1 |
| 20260904165547 | 88 | 182 | 0.0 | 1.7 | 0.00 | 0.00 | 0.00 | 71 | 1014.1 |
| 20260904165046 | 88 | 68 | 0.9 | 2.6 | 0.00 | 0.00 | 0.00 | 71 | 1014.2 |
| 20260904164542 | 88 | 119 | 1.7 | 1.7 | 0.00 | 0.00 | 0.00 | 70 | 1014.4 |
| 20260904164037 | 89 | 277 | 0.9 | 3.5 | 0.00 | 0.00 | 0.00 | 70 | 1014.4 |
| 20260904163537 | 89 | 261 | 1.7 | 2.6 | 0.00 | 0.00 | 0.00 | 69 | 1014.3 |
| 20260904163032 | 91 | 20 | 0.0 | 1.7 | 0.00 | 0.00 | 0.00 | 66 | 1014.5 |
| 20260904162527 | 92 | 329 | 0.0 | 3.5 | 0.00 | 0.00 | 0.00 | 64 | 1014.4 |
| 20260904162022 | 91 | 352 | 0.9 | 2.6 | 0.00 | 0.00 | 0.00 | 65 | 1014.5 |
| 20260904161517 | 90 | 57 | 0.0 | 4.3 | 0.00 | 0.00 | 0.00 | 67 | 1014.5 |
| 20260904161012 | 91 | 291 | 0.9 | 2.6 | 0.00 | 0.00 | 0.00 | 65 | 1014.7 |
| 20260904160507 | 92 | 97 | 2.6 | 4.3 | 0.00 | 0.00 | 0.00 | 62 | 1015.0 |
| 20260904160004 | 92 | 264 | 0.9 | 3.5 | 0.00 | 0.00 | 0.00 | 65 | 1014.9 |
| 20260904155503 | 89 | 334 | 0.9 | 1.7 | 0.00 | 0.00 | 0.00 | 71 | 1014.9 |
| 20260904155001 | 88 | 69 | 0.0 | 2.6 | 0.00 | 0.00 | 0.00 | 71 | 1014.9 |
| 20260904154456 | 88 | 288 | 2.6 | 3.5 | 0.00 | 0.00 | 0.00 | 71 | 1015.1 |
| 20260904153951 | 88 | 322 | 0.9 | 1.7 | 0.00 | 0.00 | 0.00 | 73 | 1014.8 |
| 20260904153445 | 88 | 153 | 0.9 | 2.6 | 0.00 | 0.00 | 0.00 | 74 | 1014.9 |
| 20260904152942 | 87 | 308 | 1.7 | 1.7 | 0.00 | 0.00 | 0.00 | 75 | 1014.6 |
| 20260904152438 | 87 | 38 | 0.0 | 3.5 | 0.00 | 0.00 | 0.00 | 75 | 1014.7 |
| 20260904151938 | 86 | 194 | 0.0 | 1.7 | 0.00 | 0.00 | 0.00 | 76 | 1014.6 |
| 20260904151433 | 86 | 176 | 0.0 | 2.6 | 0.00 | 0.00 | 0.00 | 76 | 1014.4 |
| 20260904150927 | 87 | 302 | 0.0 | 1.7 | 0.00 | 0.00 | 0.00 | 75 | 1014.7 |
| 20260904150422 | 86 | 204 | 1.7 | 2.6 | 0.00 | 0.00 | 0.00 | 76 | 1014.7 |
| 20260904145920 | 86 | 46 | 0.9 | 2.6 | 0.00 | 0.00 | 0.00 | 76 | 1014.7 |
| 20260904145416 | 86 | 234 | 0.0 | 2.6 | 0.00 | 0.00 | 0.00 | 77 | 1014.6 |
| 20260904144912 | 86 | 13 | 0.0 | 1.7 | 0.00 | 0.00 | 0.00 | 75 | 1014.7 |
| 20260904144407 | 86 | 267 | 2.6 | 2.6 | 0.00 | 0.00 | 0.00 | 76 | 1014.7 |
| 20260904143903 | 86 | 69 | 1.7 | 2.6 | 0.00 | 0.00 | 0.00 | 76 | 1014.6 |
| 20260904143359 | 86 | 235 | 0.0 | 3.5 | 0.00 | 0.00 | 0.00 | 78 | 1014.5 |
| 20260904142856 | 86 | 199 | 0.0 | 1.7 | 0.00 | 0.00 | 0.00 | 80 | 1014.4 |
| 20260904142352 | 86 | 287 | 0.0 | 3.5 | 0.00 | 0.00 | 0.00 | 78 | 1014.5 |
| 20260904141851 | 85 | 295 | 0.9 | 4.3 | 0.00 | 0.00 | 0.00 | 79 | 1014.5 |
| 20260904141346 | 85 | 259 | 0.9 | 2.6 | 0.00 | 0.00 | 0.00 | 79 | 1014.3 |
| 20260904140843 | 85 | 306 | 1.7 | 3.5 | 0.00 | 0.00 | 0.00 | 79 | 1014.4 |
| 20260904140337 | 84 | 185 | 0.9 | 1.7 | 0.00 | 0.00 | 0.00 | 80 | 1014.4 |
| 20260904135836 | 84 | 258 | 1.7 | 3.5 | 0.00 | 0.00 | 0.00 | 81 | 1014.4 |
| 20260904135331 | 84 | 239 | 0.9 | 3.5 | 0.00 | 0.00 | 0.00 | 80 | 1014.5 |
| 20260904134827 | 84 | 107 | 2.6 | 4.3 | 0.00 | 0.00 | 0.00 | 80 | 1014.4 |
| 20260904134322 | 84 | 61 | 0.0 | 1.7 | 0.00 | 0.00 | 0.00 | 82 | 1014.4 |
| 20260904133822 | 84 | 317 | 0.0 | 2.6 | 0.00 | 0.00 | 0.00 | 83 | 1014.3 |
| 20260904133318 | 84 | 86 | 1.7 | 2.6 | 0.00 | 0.00 | 0.00 | 84 | 1014.2 |
| 20260904132817 | 83 | 298 | 1.7 | 2.6 | 0.00 | 0.00 | 0.00 | 84 | 1014.3 |
| 20260904132312 | 83 | 138 | 1.7 | 4.3 | 0.00 | 0.00 | 0.00 | 83 | 1014.3 |
| 20260904131812 | 83 | 274 | 0.0 | 1.7 | 0.00 | 0.00 | 0.00 | 85 | 1014.2 |
| 20260904131308 | 83 | 283 | 0.0 | 1.7 | 0.00 | 0.00 | 0.00 | 85 | 1014.4 |
| 20260904130808 | 83 | 58 | 0.0 | 1.7 | 0.00 | 0.00 | 0.00 | 85 | 1014.3 |
| 20260904130307 | 83 | 90 | 0.9 | 3.5 | 0.00 | 0.00 | 0.00 | 86 | 1014.6 |
| 20260904125803 | 83 | 303 | 0.0 | 1.7 | 0.00 | 0.00 | 0.00 | 87 | 1014.5 |
| 20260904125259 | 82 | 227 | 0.0 | 1.7 | 0.00 | 0.00 | 0.00 | 88 | 1014.7 |
| 20260904124753 | 82 | 296 | 0.0 | 2.6 | 0.00 | 0.00 | 0.00 | 89 | 1014.5 |
| 20260904124249 | 82 | 114 | 0.9 | 1.7 | 0.00 | 0.00 | 0.00 | 90 | 1014.2 |
| 20260904123749 | 82 | 161 | 0.0 | 2.6 | 0.00 | 0.00 | 0.00 | 90 | 1014.2 |
| 20260904123239 | 82 | 356 | 0.0 | 1.7 | 0.00 | 0.00 | 0.00 | 91 | 1014.4 |
| 20260904122734 | 81 | 98 | 0.0 | 1.7 | 0.00 | 0.00 | 0.00 | 91 | 1014.1 |
| 20260904122228 | 81 | 300 | 0.0 | 1.7 | 0.00 | 0.00 | 0.00 | 94 | 1014.0 |
| 20260904121724 | 80 | 190 | 0.0 | 1.7 | 0.00 | 0.00 | 0.00 | 97 | 1014.0 |
| 20260904121219 | 79 | 161 | 0.9 | 2.6 | 0.00 | 0.00 | 0.00 | 98 | 1014.1 |
| 20260904120715 | 79 | 218 | 0.0 | 1.7 | 0.00 | 0.00 | 0.00 | 98 | 1014.1 |
| 20260904120211 | 78 | 87 | 0.0 | 0.9 | 0.00 | 0.00 | 0.00 | 98 | 1014.2 |
| 20260904115706 | 78 | 31 | 0.0 | 0.9 | 0.00 | 0.00 | 0.00 | 98 | 1013.9 |
| 20260904115201 | 78 | 0 | 0.0 | 0.0 | 0.00 | 0.00 | 0.00 | 98 | 1014.1 |
| 20260904114701 | 78 | 250 | 0.0 | 0.0 | 0.00 | 0.00 | 0.00 | 98 | 1013.9 |
| 20260904114155 | 77 | 250 | 0.0 | 0.0 | 0.00 | 0.00 | 0.00 | 98 | 1013.9 |
| 20260904113650 | 77 | 223 | 0.0 | 0.0 | 0.00 | 0.00 | 0.00 | 98 | 1013.9 |
| 20260904113149 | 77 | 122 | 0.0 | 0.0 | 0.00 | 0.00 | 0.00 | 98 | 1013.7 |
| 20260904112644 | 77 | 116 | 0.0 | 0.0 | 0.00 | 0.00 | 0.00 | 98 | 1013.6 |
| 20260904112140 | 77 | 278 | 0.0 | 0.0 | 0.00 | 0.00 | 0.00 | 98 | 1013.5 |
| 20260904111636 | 77 | 277 | 0.0 | 0.0 | 0.00 | 0.00 | 0.00 | 98 | 1013.6 |
| 20260904111131 | 77 | 198 | 0.0 | 0.0 | 0.00 | 0.00 | 0.00 | 98 | 1013.7 |
| 20260904110627 | 77 | 198 | 0.0 | 0.0 | 0.00 | 0.00 | 0.00 | 98 | 1013.6 |
| 20260904110126 | 77 | 70 | 0.0 | 0.0 | 0.00 | 0.00 | 0.00 | 98 | 1013.4 |
| 20260904105626 | 77 | 55 | 0.0 | 0.0 | 0.00 | 0.00 | 0.00 | 98 | 1013.6 |
| 20260904105121 | 77 | 134 | 0.0 | 0.0 | 0.00 | 0.00 | 0.00 | 98 | 1013.5 |
| 20260904104617 | 77 | 205 | 0.0 | 0.0 | 0.00 | 0.00 | 0.00 | 98 | 1013.4 |
| 20260904104112 | 77 | 98 | 0.0 | 0.0 | 0.00 | 0.00 | 0.00 | 98 | 1013.3 |
| 20260904103608 | 77 | 98 | 0.0 | 0.0 | 0.00 | 0.00 | 0.00 | 98 | 1013.5 |
| 20260904103104 | 77 | 356 | 0.0 | 0.0 | 0.00 | 0.00 | 0.00 | 98 | 1013.2 |
| 20260904102600 | 77 | 43 | 0.0 | 0.0 | 0.00 | 0.00 | 0.00 | 98 | 1013.3 |
| 20260904102055 | 77 | 123 | 0.0 | 0.9 | 0.00 | 0.00 | 0.00 | 98 | 1013.3 |
| 20260904101551 | 77 | 153 | 0.0 | 0.0 | 0.00 | 0.00 | 0.00 | 98 | 1013.5 |
| 20260904101047 | 77 | 70 | 0.0 | 0.0 | 0.00 | 0.00 | 0.00 | 97 | 1013.5 |
| 20260904100542 | 77 | 334 | 0.0 | 0.0 | 0.00 | 0.00 | 0.00 | 97 | 1013.3 |
| 20260904100037 | 77 | 186 | 0.0 | 0.0 | 0.00 | 0.00 | 0.00 | 97 | 1013.2 |
| 20260904095532 | 77 | 13 | 0.0 | 0.0 | 0.00 | 0.00 | 0.00 | 97 | 1013.3 |
| 20260904095027 | 77 | 250 | 0.0 | 0.0 | 0.00 | 0.00 | 0.00 | 97 | 1013.3 |
| 20260904094522 | 77 | 103 | 0.0 | 0.0 | 0.00 | 0.00 | 0.00 | 97 | 1013.2 |
| 20260904094017 | 77 | 278 | 0.0 | 0.0 | 0.00 | 0.00 | 0.00 | 97 | 1013.3 |
| 20260904093514 | 77 | 18 | 0.0 | 0.0 | 0.00 | 0.00 | 0.00 | 97 | 1013.2 |
| 20260904093009 | 77 | 110 | 0.0 | 0.9 | 0.00 | 0.00 | 0.00 | 97 | 1013.1 |
| 20260904092504 | 77 | 58 | 0.0 | 0.0 | 0.00 | 0.00 | 0.00 | 97 | 1013.3 |
| 20260904092000 | 77 | 123 | 0.0 | 0.0 | 0.00 | 0.00 | 0.00 | 97 | 1013.0 |
| 20260904091451 | 77 | 290 | 0.0 | 0.0 | 0.00 | 0.00 | 0.00 | 97 | 1013.1 |
| 20260904090950 | 77 | 211 | 0.0 | 0.0 | 0.00 | 0.00 | 0.00 | 96 | 1013.0 |
| 20260904090446 | 77 | 107 | 0.0 | 0.0 | 0.00 | 0.00 | 0.00 | 96 | 1013.1 |
| 20260904085941 | 77 | 18 | 0.0 | 0.9 | 0.00 | 0.00 | 0.00 | 96 | 1012.9 |
| 20260904085437 | 77 | 134 | 0.0 | 0.0 | 0.00 | 0.00 | 0.00 | 96 | 1013.2 |
| 20260904084936 | 77 | 134 | 0.0 | 0.0 | 0.00 | 0.00 | 0.00 | 96 | 1013.2 |
| 20260904084432 | 77 | 134 | 0.0 | 0.0 | 0.00 | 0.00 | 0.00 | 96 | 1013.0 |
| 20260904083928 | 78 | 134 | 0.0 | 0.0 | 0.00 | 0.00 | 0.00 | 96 | 1013.2 |
| 20260904083424 | 78 | 134 | 0.0 | 0.0 | 0.00 | 0.00 | 0.00 | 96 | 1012.8 |
| 20260904082920 | 78 | 134 | 0.0 | 0.0 | 0.00 | 0.00 | 0.00 | 95 | 1013.0 |
| 20260904082420 | 78 | 134 | 0.0 | 0.0 | 0.00 | 0.00 | 0.00 | 95 | 1012.9 |
| 20260904081914 | 78 | 186 | 0.0 | 0.0 | 0.00 | 0.00 | 0.00 | 95 | 1013.0 |
| 20260904081410 | 78 | 186 | 0.0 | 0.0 | 0.00 | 0.00 | 0.00 | 95 | 1013.0 |
| 20260904080906 | 78 | 186 | 0.0 | 0.0 | 0.00 | 0.00 | 0.00 | 95 | 1012.9 |
| 20260904080401 | 78 | 186 | 0.0 | 0.0 | 0.00 | 0.00 | 0.00 | 95 | 1013.1 |
| 20260904075857 | 78 | 186 | 0.0 | 0.0 | 0.00 | 0.00 | 0.00 | 95 | 1013.2 |
| 20260904075353 | 78 | 98 | 0.0 | 0.0 | 0.00 | 0.00 | 0.00 | 94 | 1013.0 |
| 20260904074851 | 78 | 98 | 0.0 | 0.0 | 0.00 | 0.00 | 0.00 | 95 | 1012.9 |
| 20260904074346 | 78 | 144 | 0.0 | 0.0 | 0.00 | 0.00 | 0.00 | 96 | 1013.1 |
| 20260904073842 | 78 | 290 | 0.0 | 0.0 | 0.00 | 0.00 | 0.00 | 96 | 1013.0 |
| 20260904073338 | 78 | 205 | 0.0 | 0.0 | 0.00 | 0.00 | 0.00 | 97 | 1012.9 |
| 20260904072833 | 78 | 98 | 0.0 | 0.0 | 0.00 | 0.00 | 0.00 | 97 | 1013.0 |
| 20260904072333 | 77 | 98 | 0.0 | 0.0 | 0.00 | 0.00 | 0.00 | 97 | 1013.3 |
| 20260904071828 | 77 | 85 | 0.0 | 0.0 | 0.00 | 0.00 | 0.00 | 97 | 1013.0 |
| 20260904071324 | 77 | 85 | 0.0 | 0.0 | 0.00 | 0.00 | 0.00 | 97 | 1013.1 |
| 20260904070818 | 77 | 70 | 0.0 | 0.0 | 0.00 | 0.00 | 0.00 | 97 | 1013.0 |
| 20260904070317 | 77 | 70 | 0.0 | 0.0 | 0.00 | 0.00 | 0.00 | 97 | 1012.9 |
| 20260904065812 | 77 | 70 | 0.0 | 0.0 | 0.00 | 0.00 | 0.00 | 97 | 1012.9 |
| 20260904065308 | 77 | 70 | 0.0 | 0.0 | 0.00 | 0.00 | 0.00 | 97 | 1013.2 |
| 20260904064803 | 77 | 70 | 0.0 | 0.0 | 0.00 | 0.00 | 0.00 | 96 | 1013.0 |
| 20260904064259 | 77 | 70 | 0.0 | 0.0 | 0.00 | 0.00 | 0.00 | 96 | 1013.2 |
| 20260904063754 | 77 | 70 | 0.0 | 0.0 | 0.00 | 0.00 | 0.00 | 96 | 1013.0 |
| 20260904063250 | 77 | 70 | 0.0 | 0.0 | 0.00 | 0.00 | 0.00 | 96 | 1013.2 |
| 20260904062746 | 77 | 70 | 0.0 | 0.0 | 0.00 | 0.00 | 0.00 | 96 | 1013.2 |
| 20260904062242 | 77 | 70 | 0.0 | 0.0 | 0.00 | 0.00 | 0.00 | 96 | 1013.2 |
| 20260904061737 | 78 | 70 | 0.0 | 0.0 | 0.00 | 0.00 | 0.00 | 96 | 1013.3 |
| 20260904061233 | 78 | 70 | 0.0 | 0.0 | 0.00 | 0.00 | 0.00 | 96 | 1013.5 |
| 20260904060730 | 78 | 250 | 0.0 | 0.0 | 0.00 | 0.00 | 0.00 | 95 | 1013.4 |
| 20260904060225 | 78 | 250 | 0.0 | 0.0 | 0.00 | 0.00 | 0.00 | 95 | 1013.5 |
| 20260904055720 | 78 | 250 | 0.0 | 0.0 | 0.00 | 0.00 | 0.00 | 95 | 1013.8 |
| 20260904055215 | 78 | 250 | 0.0 | 0.0 | 0.00 | 0.00 | 0.00 | 95 | 1013.6 |
| 20260904054711 | 78 | 250 | 0.0 | 0.0 | 0.00 | 0.00 | 0.00 | 95 | 1013.9 |
| 20260904054207 | 78 | 250 | 0.0 | 0.0 | 0.00 | 0.00 | 0.00 | 95 | 1013.7 |
| 20260904053701 | 78 | 250 | 0.0 | 0.0 | 0.00 | 0.00 | 0.00 | 94 | 1013.7 |
| 20260904053156 | 78 | 98 | 0.0 | 0.0 | 0.00 | 0.00 | 0.00 | 95 | 1013.8 |
| 20260904052653 | 78 | 98 | 0.0 | 0.0 | 0.00 | 0.00 | 0.00 | 95 | 1014.0 |
| 20260904052148 | 78 | 110 | 0.0 | 0.0 | 0.00 | 0.00 | 0.00 | 95 | 1014.1 |
| 20260904051645 | 78 | 57 | 0.0 | 0.0 | 0.00 | 0.00 | 0.00 | 95 | 1014.0 |
| 20260904051145 | 78 | 57 | 0.0 | 0.0 | 0.00 | 0.00 | 0.00 | 95 | 1014.1 |
| 20260904050640 | 78 | 57 | 0.0 | 0.0 | 0.00 | 0.00 | 0.00 | 95 | 1014.1 |
| 20260904050137 | 78 | 186 | 0.0 | 0.0 | 0.00 | 0.00 | 0.00 | 95 | 1014.1 |
| 20260904045636 | 78 | 186 | 0.0 | 0.0 | 0.00 | 0.00 | 0.00 | 95 | 1014.2 |
| 20260904045131 | 78 | 186 | 0.0 | 0.0 | 0.00 | 0.00 | 0.00 | 95 | 1014.2 |
| 20260904044626 | 78 | 186 | 0.0 | 0.0 | 0.00 | 0.00 | 0.00 | 94 | 1014.1 |
| 20260904044123 | 78 | 186 | 0.0 | 0.0 | 0.00 | 0.00 | 0.00 | 94 | 1014.2 |
| 20260904043619 | 78 | 186 | 0.0 | 0.0 | 0.00 | 0.00 | 0.00 | 94 | 1014.1 |
| 20260904043115 | 79 | 150 | 0.0 | 0.0 | 0.00 | 0.00 | 0.00 | 94 | 1014.2 |
| 20260904042610 | 79 | 123 | 0.0 | 0.0 | 0.00 | 0.00 | 0.00 | 93 | 1014.1 |
| 20260904042106 | 79 | 227 | 0.0 | 0.9 | 0.00 | 0.00 | 0.00 | 93 | 1014.1 |
| 20260904041601 | 79 | 285 | 0.0 | 0.0 | 0.00 | 0.00 | 0.00 | 92 | 1014.1 |
| 20260904041057 | 79 | 285 | 0.0 | 0.0 | 0.00 | 0.00 | 0.00 | 92 | 1014.0 |
| 20260904040557 | 80 | 210 | 0.0 | 0.0 | 0.00 | 0.00 | 0.00 | 92 | 1014.0 |
| 20260904040054 | 80 | 92 | 0.0 | 0.0 | 0.00 | 0.00 | 0.00 | 92 | 1014.2 |
| 20260904035549 | 80 | 296 | 0.0 | 0.0 | 0.00 | 0.00 | 0.00 | 91 | 1014.0 |
| 20260904035048 | 80 | 94 | 0.0 | 0.9 | 0.00 | 0.00 | 0.00 | 91 | 1014.2 |
| 20260904034543 | 80 | 105 | 0.0 | 0.0 | 0.00 | 0.00 | 0.00 | 91 | 1014.2 |
| 20260904034039 | 80 | 268 | 0.0 | 0.0 | 0.00 | 0.00 | 0.00 | 91 | 1014.2 |
| 20260904033535 | 80 | 110 | 0.0 | 0.0 | 0.00 | 0.00 | 0.00 | 91 | 1014.1 |
| 20260904033032 | 80 | 250 | 0.0 | 0.0 | 0.00 | 0.00 | 0.00 | 91 | 1014.0 |
| 20260904032528 | 80 | 250 | 0.0 | 0.9 | 0.00 | 0.00 | 0.00 | 91 | 1014.1 |
| 20260904032026 | 80 | 198 | 0.0 | 0.0 | 0.00 | 0.00 | 0.00 | 91 | 1013.9 |
| 20260904031521 | 80 | 43 | 0.0 | 0.9 | 0.00 | 0.00 | 0.00 | 91 | 1014.0 |
| 20260904031017 | 80 | 98 | 0.0 | 0.9 | 0.00 | 0.00 | 0.00 | 91 | 1014.1 |
| 20260904030513 | 80 | 303 | 0.0 | 0.0 | 0.00 | 0.00 | 0.00 | 91 | 1014.0 |
| 20260904030008 | 80 | 290 | 0.0 | 0.9 | 0.00 | 0.00 | 0.00 | 91 | 1013.9 |
| 20260904025504 | 80 | 315 | 0.0 | 0.0 | 0.00 | 0.00 | 0.00 | 90 | 1014.0 |
| 20260904025004 | 80 | 274 | 0.0 | 0.0 | 0.00 | 0.00 | 0.00 | 90 | 1014.1 |
| 20260904024459 | 80 | 153 | 0.0 | 0.0 | 0.00 | 0.00 | 0.00 | 90 | 1013.9 |
| 20260904023954 | 80 | 210 | 0.0 | 0.9 | 0.00 | 0.00 | 0.00 | 90 | 1013.6 |
| 20260904023450 | 80 | 163 | 0.0 | 0.0 | 0.00 | 0.00 | 0.00 | 90 | 1013.8 |
| 20260904022950 | 80 | 278 | 0.0 | 0.0 | 0.00 | 0.00 | 0.00 | 90 | 1013.9 |
| 20260904022446 | 80 | 278 | 0.0 | 0.0 | 0.00 | 0.00 | 0.00 | 90 | 1013.8 |
| 20260904021943 | 80 | 34 | 0.0 | 0.9 | 0.00 | 0.00 | 0.00 | 90 | 1013.7 |
| 20260904021438 | 80 | 31 | 0.0 | 1.7 | 0.00 | 0.00 | 0.00 | 90 | 1013.8 |
| 20260904020933 | 80 | 98 | 0.0 | 0.0 | 0.00 | 0.00 | 0.00 | 90 | 1013.9 |
| 20260904020428 | 80 | 216 | 0.0 | 0.9 | 0.00 | 0.00 | 0.00 | 91 | 1013.7 |
| 20260904015926 | 80 | 223 | 0.0 | 0.0 | 0.00 | 0.00 | 0.00 | 90 | 1013.9 |
| 20260904015422 | 80 | 95 | 0.0 | 0.9 | 0.00 | 0.00 | 0.00 | 90 | 1013.5 |
| 20260904014920 | 80 | 20 | 0.0 | 0.9 | 0.00 | 0.00 | 0.00 | 90 | 1013.7 |
| 20260904014416 | 80 | 198 | 0.0 | 0.9 | 0.00 | 0.00 | 0.00 | 90 | 1013.7 |
| 20260904013912 | 80 | 43 | 0.0 | 0.0 | 0.00 | 0.00 | 0.00 | 89 | 1013.5 |
| 20260904013407 | 80 | 250 | 0.0 | 0.0 | 0.00 | 0.00 | 0.00 | 89 | 1013.9 |
| 20260904012858 | 80 | 236 | 0.0 | 0.9 | 0.00 | 0.00 | 0.00 | 88 | 1013.7 |
| 20260904012357 | 80 | 186 | 0.0 | 0.0 | 0.00 | 0.00 | 0.00 | 88 | 1013.9 |
| 20260904011857 | 80 | 98 | 0.0 | 0.9 | 0.00 | 0.00 | 0.00 | 88 | 1013.9 |
| 20260904011352 | 80 | 98 | 0.0 | 0.0 | 0.00 | 0.00 | 0.00 | 88 | 1013.5 |
| 20260904010847 | 80 | 25 | 0.0 | 0.9 | 0.00 | 0.00 | 0.00 | 88 | 1013.8 |
| 20260904010344 | 80 | 227 | 0.0 | 0.0 | 0.00 | 0.00 | 0.00 | 87 | 1013.5 |
| 20260904005838 | 80 | 205 | 0.0 | 0.0 | 0.00 | 0.00 | 0.00 | 86 | 1013.5 |
| 20260904005334 | 80 | 198 | 0.0 | 0.9 | 0.00 | 0.00 | 0.00 | 86 | 1013.5 |
| 20260904004829 | 81 | 91 | 0.0 | 1.7 | 0.00 | 0.00 | 0.00 | 85 | 1013.5 |
| 20260904004326 | 81 | 21 | 0.0 | 0.9 | 0.00 | 0.00 | 0.00 | 86 | 1013.2 |
| 20260904003820 | 81 | 130 | 0.0 | 0.0 | 0.00 | 0.00 | 0.00 | 85 | 1013.5 |
| 20260904003316 | 81 | 84 | 0.0 | 0.0 | 0.00 | 0.00 | 0.00 | 85 | 1013.5 |
| 20260904002812 | 81 | 278 | 0.0 | 0.0 | 0.00 | 0.00 | 0.00 | 84 | 1013.6 |
| 20260904002308 | 81 | 84 | 0.0 | 0.0 | 0.00 | 0.00 | 0.00 | 84 | 1013.6 |
| 20260904001807 | 81 | 70 | 0.0 | 0.0 | 0.00 | 0.00 | 0.00 | 84 | 1013.5 |
| 20260904001302 | 81 | 216 | 0.0 | 0.0 | 0.00 | 0.00 | 0.00 | 84 | 1013.6 |
| 20260904000757 | 81 | 250 | 0.0 | 0.0 | 0.00 | 0.00 | 0.00 | 84 | 1013.4 |
| 20260904000251 | 82 | 97 | 0.0 | 0.9 | 0.00 | 0.00 | 0.00 | 83 | 1013.2 |
| 20260903235750 | 82 | 25 | 0.0 | 0.9 | 0.00 | 0.00 | 0.00 | 84 | 1013.3 |
| 20260903235247 | 82 | 31 | 0.0 | 0.9 | 0.00 | 0.00 | 0.00 | 84 | 1013.3 |